Temperature
11 10 10 10 10 10 10 10 10 10 10 10 10 10 10 10 10 10 11 11 11 11 11 11 10 10 10 10 10 10 10 10 10 10 10 10 10 9 9 9 9 9 9
10 10 9 9 9 9 10 9 10 10 10 10 9 9 10 10 10 10 10 10 10 10 10 10 10 10 10 10 9 9 9 9 9 8 8 8 8 9 9 9 9 8 8
10 10 9 9 9 9 9 9 9 9 9 9 9 9 9 9 9 9 10 10 10 10 10 10 10 10 9 9 9 9 9 9 8 8 7 7 7 7 8 8 8 8 8
10 9 9 9 9 9 9 9 9 9 9 9 9 9 9 9 9 9 9 9 9 9 9 9 9 9 9 9 9 8 8 8 8 8 7 7 7 6 6 7 7 7 7
10 9 9 9 8 8 9 9 9 9 9 9 9 8 8 8 8 8 8 8 8 8 9 9 9 9 8 8 8 8 8 8 7 7 7 7 6 6 6 6 6 6 7
9 9 9 8 8 8 8 8 9 9 9 8 8 8 8 8 8 8 8 8 8 8 8 8 8 8 8 8 8 8 7 7 7 7 7 6 6 6 5 5 5 5 6
9 9 8 8 8 8 8 8 8 8 8 8 8 8 8 8 8 8 8 8 8 7 7 7 7 7 7 7 7 7 7 7 6 6 6 6 6 5 5 5 5 4 5
9 8 8 8 8 8 8 8 8 8 8 8 8 8 7 7 7 7 7 7 7 7 7 7 7 7 7 7 7 7 6 6 6 6 6 6 5 5 5 4 4 4 4
9 8 8 8 8 8 8 8 8 8 8 8 8 7 7 7 7 7 7 7 7 6 6 6 6 6 6 6 6 6 6 6 6 5 5 5 5 5 4 4 4 3 3
9 8 8 8 8 8 8 8 8 8 8 7 7 7 7 7 7 6 7 6 6 6 6 6 6 6 6 6 6 5 5 5 5 5 5 5 4 4 4 4 3 3 3
8 8 8 8 7 7 7 7 7 7 7 7 7 7 7 7 6 6 6 6 6 6 6 6 6 5 5 5 5 5 5 5 4 4 4 4 4 4 3 3 3 3 2
8 8 7 7 7 7 7 7 7 7 7 7 6 6 6 6 6 6 6 6 6 5 5 5 5 5 5 5 5 4 4 4 4 4 4 3 3 3 3 3 2 2 2
8 7 7 7 7 7 6 6 6 6 6 6 6 6 6 5 5 5 5 5 5 5 5 5 5 5 4 4 4 4 4 3 3 3 3 3 3 3 2 2 2 2 1
8 7 7 7 6 6 6 6 6 6 6 6 6 5 5 5 5 5 5 5 5 4 4 4 4 4 4 4 4 3 3 3 3 3 2 2 2 2 2 2 1 1 1
7 7 7 6 6 6 6 6 6 6 5 5 5 5 5 4 4 4 4 4 4 4 4 4 4 4 4 3 3 3 3 3 2 2 2 2 2 2 1 1 1 0 0
7 6 6 6 6 6 6 6 5 5 5 5 5 5 4 4 4 4 4 4 4 4 4 4 4 3 3 3 3 2 2 2 2 2 1 1 1 1 1 1 0 0 -0
7 6 6 6 6 5 5 5 5 5 5 5 4 4 4 4 4 4 3 3 3 3 3 3 3 3 3 3 2 2 2 2 1 1 1 1 1 1 0 0 0 -0 -1
6 6 5 5 5 5 5 5 5 4 4 4 4 4 4 3 3 3 3 3 3 3 3 3 2 2 2 2 2 1 1 1 1 1 0 0 0 -0 -0 -0 -0 -1 -1
5 5 5 5 5 5 4 4 4 4 4 4 4 3 3 3 3 3 3 2 2 2 2 2 2 2 2 1 1 1 1 1 0 0 -0 -1 -1 -1 -1 -1 -1 -1 -1
5 4 4 4 4 4 4 4 4 4 4 3 3 3 3 3 2 2 2 2 2 2 2 2 1 1 1 1 1 0 0 0 -0 -0 -1 -1 -1 -1 -1 -1 -1 -1 -1
4 4 4 3 3 3 3 3 3 3 3 3 2 2 2 2 2 2 2 1 1 1 1 1 1 1 1 1 0 -0 -0 -0 -0 -1 -1 -1 -1 -2 -2 -2 -2 -2 -2
3 3 3 3 3 2 2 3 2 2 2 2 2 2 2 2 1 1 1 1 1 1 1 1 1 1 0 0 0 -0 -1 -1 -1 -1 -1 -2 -2 -2 -2 -2 -2 -2 -3
3 3 2 2 2 2 2 2 2 2 2 2 2 2 1 1 1 1 1 1 0 0 0 0 0 0 0 -0 -0 -1 -1 -1 -1 -1 -2 -2 -2 -2 -2 -2 -2 -3 -3
2 2 2 2 2 2 2 1 2 1 1 1 1 1 1 1 1 0 0 0 0 -0 -0 -0 -0 -0 -0 -0 -1 -1 -1 -1 -2 -2 -2 -2 -2 -2 -2 -3 -3 -3 -3
1 1 1 1 1 1 1 1 1 1 1 1 1 1 0 0 0 0 -0 -0 -0 -1 -1 -1 -1 -1 -1 -1 -1 -1 -2 -2 -2 -2 -2 -2 -2 -2 -3 -3 -3 -3 -3
1 1 1 1 1 1 1 1 1 1 0 0 0 0 0 -0 -0 -0 -1 -1 -1 -1 -1 -1 -1 -1 -1 -2 -2 -2 -2 -2 -2 -3 -3 -3 -3 -3 -3 -3 -3 -3 -4
Wind_Speed
5 6 6 6 6 5 5 4 4 3 2 2 2 2 1 1 1 2 3 3 3 3 2 1 2 2 2 2 2 2 2 1 2 2 2 2 2 0 0 0 1 1 3
6 6 6 6 5 4 4 4 4 3 2 2 2 1 2 1 1 1 2 2 2 3 2 2 1 1 1 2 2 2 1 1 1 1 1 2 2 2 1 1 1 1 2
6 6 6 5 5 4 4 3 3 3 2 3 2 2 2 1 1 1 1 1 1 2 2 2 2 2 1 1 1 1 1 1 1 0 0 0 2 2 2 2 1 1 2
4 5 6 6 5 4 4 3 3 3 3 3 3 3 2 1 1 1 1 0 0 1 1 1 1 1 1 1 1 1 1 1 2 1 1 1 1 1 2 2 2 2 2
5 5 5 5 5 4 4 3 3 3 3 3 3 2 1 1 1 1 1 0 0 0 0 1 1 1 1 1 1 1 1 1 2 1 1 2 2 2 2 4 3 3 2
4 5 5 5 4 5 4 3 3 3 3 2 2 2 2 2 1 1 1 1 1 1 1 1 1 1 1 1 1 1 2 1 1 1 1 1 1 2 2 3 4 4 3
5 5 6 5 5 5 5 4 3 2 2 2 2 2 2 2 2 2 2 2 1 1 1 1 1 1 1 1 1 1 1 2 2 2 2 2 2 2 2 3 4 4 4
4 5 5 5 5 5 5 4 4 3 2 2 2 2 2 1 1 1 1 1 1 2 1 1 2 2 2 2 1 1 2 2 2 3 2 2 2 2 2 2 2 4 4
5 4 5 5 5 5 5 5 4 3 3 2 2 2 2 1 1 1 1 1 1 1 1 2 2 2 2 2 2 2 2 2 2 2 2 2 2 2 2 2 2 3 5
3 4 4 5 5 4 4 4 4 4 3 3 3 2 2 2 1 2 2 2 2 2 2 2 2 3 2 2 2 2 2 2 2 2 2 3 3 2 2 2 2 2 4
2 2 2 3 4 4 4 4 4 3 3 3 2 2 2 2 2 2 2 2 2 2 3 3 3 3 3 3 2 3 2 3 3 3 3 4 3 3 3 2 2 3 3
2 1 2 2 3 3 3 3 3 3 3 3 2 2 2 2 2 2 2 2 2 3 3 3 3 3 3 3 3 3 3 3 4 4 4 4 4 4 3 3 3 3 4
2 1 2 3 3 3 3 3 3 3 3 2 2 2 2 3 2 3 3 3 3 3 3 3 3 4 3 3 3 3 3 4 4 4 4 5 4 5 4 3 4 3 4
2 1 2 2 3 3 4 3 3 3 3 2 2 3 3 3 3 3 3 3 3 3 3 3 4 4 3 3 3 3 3 3 4 4 4 4 5 5 5 4 4 4 4
2 2 2 2 2 2 3 3 3 3 3 3 3 3 3 2 3 3 3 3 3 3 3 3 3 3 3 3 4 3 4 4 4 4 4 5 6 7 6 5 4 4 4
2 2 2 2 3 3 3 3 3 3 3 3 4 3 3 3 3 3 3 3 3 3 3 4 4 4 4 5 6 5 4 4 4 4 4 5 6 7 9 9 8 7 6
2 2 3 3 3 3 3 3 3 3 3 3 3 3 3 3 3 3 3 4 4 3 4 4 4 4 5 6 7 7 4 4 4 4 5 5 5 6 5 7 9 9 11
3 2 2 2 2 2 2 2 3 3 4 4 4 4 4 4 3 3 4 4 4 4 4 4 5 5 5 7 7 7 4 4 4 5 5 5 5 5 5 4 4 5 6
3 2 2 3 2 2 2 2 2 3 4 4 4 4 4 4 4 4 5 4 4 4 4 4 5 5 5 6 6 5 3 4 5 5 5 5 5 8 8 4 4 5 5
3 3 2 3 3 3 2 2 3 4 5 5 4 4 4 4 5 5 5 4 4 4 4 4 4 5 5 6 6 6 3 4 4 4 5 8 8 9 8 5 4 6 5
4 3 3 3 3 3 2 3 4 5 4 3 3 3 4 4 5 4 4 4 4 4 4 5 5 4 5 6 7 7 4 4 4 4 4 5 9 9 9 7 5 7 5
4 3 2 3 3 3 3 4 5 4 3 3 3 4 4 4 4 4 4 4 4 4 4 4 4 4 4 5 7 8 8 6 5 5 4 4 8 9 9 7 7 8 6
4 3 3 4 4 3 3 5 5 3 3 3 4 4 4 4 4 4 4 4 4 3 4 3 4 4 3 4 8 8 8 8 5 4 6 7 7 7 6 7 7 5 3
4 3 4 4 4 4 4 4 4 3 3 4 4 4 4 4 4 4 4 4 4 4 4 4 5 4 4 3 3 3 4 6 6 5 6 7 7 5 5 5 4 3 3
4 4 4 5 5 5 4 4 3 3 3 4 4 4 4 5 4 4 4 4 5 5 5 5 5 5 5 6 7 4 4 4 4 3 2 2 3 3 3 2 2 2 2
5 4 5 5 5 5 5 4 4 4 5 5 5 4 4 4 4 4 4 6 6 8 9 9 8 7 8 9 9 9 8 8 6 3 3 4 4 4 4 3 3 3 3
Wind_Direction
130 124 120 119 119 114 111 112 117 117 117 123 120 119 120 89 72 71 64 39 17 10 16 14 4 5 353 333 335 347 358 360 360 355 326 300 272 169 41 31 39 37 34
140 132 123 116 116 117 116 122 125 122 124 110 101 98 93 85 90 70 62 40 15 7 8 12 3 358 349 346 350 355 355 346 19 4 320 321 319 345 345 2 21 32 36
149 142 135 130 131 133 131 133 126 128 125 109 97 82 69 57 66 82 57 12 25 23 14 357 359 352 349 333 334 347 351 311 297 10 86 281 276 311 287 290 350 18 355
140 143 141 142 146 143 134 127 128 137 137 127 131 142 154 166 190 156 115 69 84 45 16 348 344 338 337 333 323 3 331 274 270 294 279 225 218 263 296 298 310 326 323
149 152 147 148 149 140 135 133 137 149 137 132 142 146 157 163 145 125 116 78 318 146 355 335 341 344 339 332 329 319 320 261 251 260 284 274 275 237 245 277 289 297 278
150 153 142 137 141 136 132 137 145 146 135 141 141 156 177 175 164 187 184 194 226 268 268 258 272 286 291 291 285 287 283 284 262 259 265 257 254 257 252 269 286 288 279
157 161 154 153 149 145 148 152 148 145 149 153 156 176 206 207 199 206 201 197 217 234 253 255 232 236 246 252 268 263 274 275 262 249 252 255 258 256 266 271 284 290 291
153 158 159 157 157 157 156 157 157 161 164 167 180 194 214 221 211 214 211 198 213 225 224 237 240 230 239 242 237 230 242 250 255 267 260 258 260 254 256 256 273 291 289
151 156 160 159 162 164 164 162 164 168 171 176 180 198 206 213 206 207 211 211 219 227 217 222 247 234 226 225 223 227 236 236 242 251 257 260 269 260 254 250 237 246 280
140 151 159 157 159 165 167 164 171 177 178 181 192 196 202 215 214 203 207 212 224 227 230 236 239 237 225 224 221 233 241 240 251 247 249 259 264 262 248 238 247 244 255
150 160 160 156 155 159 165 171 177 173 177 189 198 196 203 214 217 218 221 214 225 225 227 232 234 233 229 228 226 229 230 238 251 251 247 255 254 258 251 246 249 256 257
149 158 155 157 161 170 174 180 184 179 186 191 201 203 207 215 221 231 235 225 227 230 229 233 236 231 229 228 228 234 235 235 244 247 243 253 256 255 252 248 251 253 256
152 167 169 173 180 187 186 185 181 183 189 195 202 210 216 219 227 236 242 233 231 232 235 232 236 232 225 229 235 232 234 237 243 245 242 248 244 250 247 247 248 255 266
181 195 199 198 194 193 189 185 188 184 188 197 208 222 228 226 228 236 241 236 234 233 233 236 237 233 225 228 235 237 240 245 250 249 247 247 238 240 241 248 249 258 263
207 212 215 226 218 202 195 188 189 190 191 197 218 233 236 235 234 237 242 242 240 239 231 238 243 236 227 231 228 230 242 246 255 257 253 251 249 246 247 253 249 252 257
216 228 239 238 233 220 208 199 201 204 198 206 225 233 233 237 239 239 241 244 243 241 236 237 237 237 244 248 249 248 244 247 251 260 263 260 250 248 254 258 258 253 253
257 247 255 245 240 227 208 215 213 208 205 218 228 232 231 233 239 242 242 244 243 242 242 243 240 238 238 248 254 258 254 249 252 255 261 267 259 248 239 254 262 263 262
298 285 281 278 270 258 234 220 212 215 215 220 229 230 230 234 238 240 242 246 242 240 242 244 243 240 242 246 253 260 256 253 256 258 258 257 257 247 244 247 255 259 265
315 307 296 288 275 261 249 230 230 227 224 225 228 227 228 234 238 242 248 249 246 249 248 248 242 241 246 245 250 254 248 257 264 266 265 260 253 260 255 244 250 265 273
314 308 302 293 272 267 245 235 240 237 234 230 231 228 231 237 241 244 249 250 247 249 252 256 248 241 241 246 249 247 241 254 263 266 263 263 264 266 258 238 235 257 268
304 298 293 283 272 264 247 245 246 244 243 241 235 230 230 237 243 246 246 247 248 250 252 257 257 245 240 247 249 246 241 249 263 267 264 261 267 267 264 254 239 256 271
296 290 286 284 280 264 246 250 250 249 246 246 244 240 238 242 245 240 246 243 238 247 254 259 265 256 245 245 251 251 250 256 261 266 267 266 269 267 265 262 258 265 273
294 294 277 279 276 262 243 250 255 245 238 241 246 248 247 246 241 237 242 246 236 237 248 253 262 267 255 250 254 254 256 258 262 267 271 274 275 274 267 262 261 261 255
286 280 267 264 269 263 248 248 253 239 232 241 251 249 246 250 247 242 240 240 236 235 240 248 257 263 264 253 246 246 256 260 263 268 271 277 277 275 268 269 264 245 238
277 269 261 260 266 268 263 257 246 233 237 244 250 250 243 242 245 244 241 242 239 233 237 243 246 252 258 257 254 251 249 246 250 267 267 263 268 265 257 256 249 240 244
281 276 267 263 266 266 265 262 247 233 234 244 247 243 240 241 240 246 264 259 251 256 251 250 253 258 260 266 260 256 257 256 254 260 261 256 253 255 254 251 250 247 248
Height
1490 1491 1492 1493 1495 1496 1497 1498 1500 1500 1501 1503 1504 1506 1507 1508 1509 1510 1511 1511 1511 1512 1512 1512 1512 1512 1512 1511 1511 1511 1511 1511 1510 1510 1509 1509 1509 1509 1509 1509 1509 1508 1508
1489 1490 1491 1492 1493 1495 1496 1497 1498 1499 1500 1501 1503 1504 1505 1506 1507 1507 1508 1509 1509 1509 1509 1510 1509 1510 1509 1509 1509 1509 1509 1509 1509 1508 1507 1506 1507 1506 1507 1507 1506 1506 1505
1487 1489 1490 1491 1492 1493 1494 1495 1496 1498 1499 1500 1501 1503 1504 1504 1505 1505 1506 1507 1507 1507 1507 1507 1507 1507 1507 1506 1506 1506 1506 1506 1507 1507 1507 1506 1505 1504 1503 1504 1504 1503 1503
1486 1488 1489 1490 1491 1492 1493 1495 1496 1497 1498 1498 1500 1501 1502 1502 1503 1503 1503 1504 1504 1504 1504 1504 1504 1504 1504 1504 1504 1504 1504 1504 1504 1504 1504 1505 1504 1503 1500 1500 1500 1500 1499
1485 1486 1487 1489 1490 1491 1492 1493 1495 1496 1496 1497 1498 1499 1500 1500 1501 1501 1501 1502 1502 1502 1501 1501 1501 1501 1501 1501 1501 1501 1501 1501 1501 1501 1501 1501 1501 1500 1500 1497 1496 1496 1496
1484 1486 1486 1488 1489 1490 1491 1492 1493 1494 1495 1496 1496 1497 1498 1498 1498 1499 1499 1499 1499 1499 1499 1498 1499 1499 1498 1498 1498 1498 1497 1497 1497 1497 1497 1497 1497 1497 1496 1495 1493 1492 1491
1483 1484 1485 1486 1487 1488 1489 1490 1491 1492 1493 1494 1494 1495 1496 1496 1496 1496 1496 1496 1496 1496 1496 1496 1496 1495 1495 1495 1494 1494 1494 1494 1494 1494 1494 1493 1493 1493 1493 1492 1490 1488 1487
1482 1483 1483 1485 1486 1487 1488 1489 1490 1491 1491 1492 1493 1494 1494 1494 1493 1493 1494 1493 1493 1494 1493 1493 1493 1492 1492 1492 1491 1491 1491 1491 1490 1490 1490 1489 1489 1489 1489 1488 1487 1485 1483
1481 1482 1483 1483 1484 1485 1486 1487 1488 1489 1490 1490 1491 1491 1491 1491 1491 1491 1491 1491 1491 1491 1490 1490 1489 1489 1488 1488 1488 1487 1487 1487 1486 1486 1486 1485 1485 1485 1484 1484 1484 1483 1480
1481 1481 1482 1482 1483 1484 1485 1486 1486 1487 1488 1488 1488 1489 1489 1488 1488 1488 1488 1488 1488 1487 1487 1486 1485 1485 1485 1485 1484 1484 1483 1483 1483 1482 1482 1481 1481 1480 1480 1479 1479 1479 1478
1479 1480 1481 1481 1482 1483 1483 1484 1484 1485 1485 1485 1486 1486 1486 1486 1485 1485 1485 1485 1485 1484 1483 1483 1482 1481 1481 1481 1480 1480 1479 1479 1479 1478 1477 1477 1476 1476 1475 1475 1474 1474 1473
1478 1479 1479 1480 1480 1480 1481 1481 1482 1482 1483 1483 1483 1483 1482 1482 1482 1482 1482 1482 1481 1481 1480 1479 1478 1478 1477 1477 1476 1476 1475 1475 1474 1474 1473 1472 1472 1471 1470 1470 1469 1469 1468
1477 1477 1478 1478 1478 1478 1479 1479 1479 1479 1480 1480 1479 1479 1479 1479 1478 1478 1478 1478 1478 1477 1476 1475 1474 1474 1473 1473 1472 1472 1471 1470 1470 1469 1468 1467 1467 1466 1466 1465 1464 1464 1463
1475 1476 1476 1476 1476 1476 1476 1476 1476 1476 1477 1476 1476 1476 1475 1475 1475 1475 1474 1474 1474 1473 1472 1471 1471 1470 1469 1469 1468 1467 1466 1466 1465 1464 1464 1463 1462 1462 1461 1460 1459 1459 1458
1473 1473 1473 1473 1473 1473 1473 1473 1473 1473 1473 1473 1473 1472 1472 1472 1472 1471 1471 1470 1469 1469 1468 1467 1466 1466 1465 1464 1464 1463 1462 1461 1460 1459 1458 1457 1457 1457 1456 1456 1455 1454 1453
1471 1471 1471 1470 1470 1470 1470 1470 1470 1470 1470 1469 1469 1469 1468 1468 1468 1467 1466 1466 1465 1465 1464 1463 1462 1461 1460 1460 1459 1458 1457 1456 1455 1453 1453 1452 1452 1451 1451 1451 1450 1450 1449
1468 1468 1468 1467 1467 1467 1467 1467 1466 1466 1466 1466 1465 1465 1464 1464 1463 1463 1462 1462 1461 1460 1459 1458 1457 1456 1456 1455 1454 1453 1452 1451 1450 1448 1447 1446 1446 1446 1445 1445 1445 1444 1444
1466 1465 1465 1464 1464 1464 1463 1463 1463 1462 1462 1461 1461 1461 1460 1460 1459 1459 1458 1458 1457 1455 1454 1453 1452 1451 1451 1450 1449 1448 1447 1445 1444 1443 1442 1441 1440 1440 1440 1440 1439 1438 1438
1463 1462 1462 1461 1460 1460 1460 1459 1459 1458 1458 1457 1457 1457 1456 1456 1455 1454 1454 1453 1452 1451 1450 1449 1448 1446 1446 1445 1445 1444 1442 1440 1439 1438 1438 1437 1436 1435 1435 1434 1433 1433 1433
1460 1459 1458 1457 1456 1456 1456 1455 1454 1454 1454 1453 1453 1452 1452 1451 1450 1450 1449 1448 1447 1446 1445 1444 1443 1442 1441 1441 1440 1439 1437 1435 1435 1434 1433 1432 1431 1431 1430 1429 1428 1427 1427
1456 1455 1454 1453 1453 1452 1452 1451 1450 1450 1450 1449 1448 1448 1447 1447 1446 1445 1444 1443 1443 1442 1441 1439 1438 1437 1437 1436 1435 1434 1433 1431 1430 1429 1428 1428 1427 1426 1425 1424 1424 1423 1423
1452 1451 1450 1449 1449 1448 1448 1447 1446 1446 1445 1445 1444 1443 1443 1442 1441 1440 1440 1439 1438 1437 1436 1435 1433 1433 1432 1432 1431 1430 1429 1428 1426 1425 1424 1423 1423 1422 1421 1420 1419 1419 1418
1449 1447 1446 1445 1444 1444 1444 1443 1442 1442 1441 1440 1439 1439 1438 1437 1437 1436 1435 1434 1433 1432 1431 1430 1429 1428 1428 1427 1426 1425 1424 1423 1422 1421 1420 1419 1418 1417 1417 1416 1415 1415 1413
1445 1443 1442 1441 1440 1440 1439 1439 1438 1437 1436 1435 1435 1434 1433 1432 1432 1431 1430 1429 1429 1428 1427 1426 1425 1423 1423 1422 1421 1421 1420 1419 1418 1417 1416 1415 1414 1413 1412 1411 1410 1410 1409
1441 1440 1438 1437 1436 1436 1435 1434 1434 1433 1432 1431 1430 1429 1429 1428 1427 1426 1425 1425 1424 1424 1423 1421 1420 1419 1418 1418 1418 1417 1416 1415 1414 1413 1411 1410 1409 1408 1407 1407 1406 1406 1405
1437 1435 1434 1433 1432 1431 1430 1430 1429 1428 1427 1426 1425 1424 1424 1423 1422 1421 1420 1419 1420 1419 1418 1417 1416 1415 1414 1413 1413 1412 1411 1410 1410 1408 1406 1405 1405 1404 1403 1402 1402 1401 1401